FENGYUN 1C DEB

Satellite information

Favourite Embed

Satellite Type and Status

DEBRISIN ORBIT

Key statistics

Satellite FENGYUN 1C DEB at a glance.

Uptime

9616

Days in orbit

Revolutions

≈ 14.2

Per day

Orbit

SSO

Sun Synchronous Orbit

Inclination

99.1

Latest

Satellite identification and parameters

Extended collection of information and parameters for FENGYUN 1C DEB.

Object identification

Identified? True

Debris? True

Object name: FENGYUN 1C DEB

International designator: 1999-025EBG

Object number (NORAD): 36734

Object ID (CCSDS): 36734

Country: PEOPLES REPUBLIC OF CHINA (PRC)

Current information (Y/N): Y

RCS size: SMALL

Orbital parameters

Period: 101.06 minutes

Inclination: 99.0622 deg

SMA: 7186.991 km

Apoapsis: 835.431 km

Periapsis: 782.281 km

RAAN: 289.7194 deg

Eccentricy: 0.00369764

Argument of periapsis: 149.365 deg

Mean anomaly: 210.9698 deg

Mean motion: 14.24892557 rev/day

Mean motion (dot): 0.0000728 rev/day2

B* drag term: 0.0031116084 1/REarth

Two-line elements (TLE)

Creation date: Sept. 3, 2025, 10:15 a.m.

Reference frame: TEME

Reference center: EARTH

Epoch: Sept. 3, 2025, 1:52 a.m. UTC

TLE line 0: 0 FENGYUN 1C DEB

TLE line 1: 1 36734U 99025EBG 25246.07783013 .00007280 00000-0 31116-2 0 9997

TLE line 2: 2 36734 99.0622 289.7194 0036976 149.3650 210.9698 14.24892557813006

Live tracking on map

Real-time ground track for satellite FENGYUN 1C DEB.

In-orbit conjunctions

A list of the most updated potential collisions computed for object FENGYUN 1C DEB.

Target Orbit TCA Probability of collision Miss distance Type
INTERCOSMOS 24 HEO 2025-03-22 23:57:29 0.000106885 747.0 (m) PAYLOAD

Associated space launch

Chinese polar orbiting meteorological satellite

FENGYUN 1C DEB was lifted into orbit during the mission ‘Long March 4B | Feng Yun 1C’, on board a Long March 4B space rocket.

The launch took place on May 10, 1999, 1:33 a.m. from Launch Complex 7.

For more information about the launch, click the button.

Launch to space Long March 4B | Feng Yun 1C
Long March 4B | Feng Yun 1C

Agency: N/A

Status: Launch Successful

Launch date: May 10, 1999, 1:33 a.m. UTC

Rocket: Long March 4B

Launch pad: Launch Complex 7

Location: Taiyuan Satellite Launch Center, People's Republic of China

...

Latest news about this satellite

There are no fresh news available about this satellite. Check back as we update our databases every day.


Newsletter sign-up

Weekly statistics, charts and insights to help you stay on top of the space industry.